www.pogodaiklimat.ru

Погода и климат >> Архив погоды >> Россия >> Калининградская область >> Балтийск


ПОГОДА в Балтийске

  • Прогноз погоды в Балтийске
  • Монитор погоды в Балтийске

АРХИВ ПОГОДЫ в Балтийске

Время (UTC), дата Ветер
(напр.,м/с)
 
Видим.   Явления Облачность Т
(С)
Тd
(С)
f
(%)
Тe
(С)
Тes
(С)
Комфортность P
(гПа)
Po
(гПа)
Тmin
(С)
Tmax
(С)
R
(мм)
R24
(мм)
S
(см)
18 18.05 В 2-4
{4}
20 км 9/9 600 м
[Cu Sc]
+19.6 +15.6 78 +22 +22 комфорт 1011.3 1010.8 +21.2 0.4
21 18.05 В 2-3
{5}
20 км 8/5 600 м
[Cu Sc Ci fib]
+17.4 +14.9 85 +18 +18 1011.2 1010.7
00 19.05 В 1-2
{9}
20 км {ливн. осадки} 8/8 300 м
[Cb cap]
+15.5 +14.7 95 +16 +16 1011.0 1010.5
03 19.05 В 2-4
{5}
4000 м дымка 8/3 600 м
[Cu Sc Ci fib]
+15.9 +15.0 94 +16 +16 1011.0 1010.5 +15.1 0.8
06 19.05 В 3-5
{5}
10 км 9/4 600 м
[Cu Sc Ac trans]
+16.8 +15.0 89 +17 +18 1010.7 1010.2 +15.1 1
09 19.05 В 2-4
{5}
20 км 9/4 600 м
[Cu Sc Ac trans Ci fib]
+20.1 +16.4 79 +23 +28 комфорт 1010.7 1010.2
12 19.05 В 1-3
{6}
20 км 10/10 300 м
[Cb cap]
+21.4 +15.9 71 +25 +25 комфорт 1010.2 1009.7
15 19.05 З 1-2
{6}
20 км 10/10 300 м
[Cb cap]
+15.3 +12.9 86 +16 +16 1009.3 1008.8
18 19.05 ЮВ 1-2
{3}
20 км 9/9 300 м
[Cb cap]
+17.6 +14.3 81 +19 +19 1009.1 1008.6 +22.0
21 19.05 В 2-4
{5}
20 км 9/6 600 м
[Cu Sc Ci fib]
+18.5 +13.8 74 +20 +20 1009.2 1008.7
00 20.05 В 2-5
{5}
20 км 6/6 600 м
[Cu Sc]
+16.0 +13.1 83 +16 +16 1009.1 1008.6
03 20.05 В 3-5
{5}
20 км 1/1 600 м
[Cu Sc]
+15.3 +13.3 88 +15 +15 1009.0 1008.5 +14.8
06 20.05 В 3-6
{6}
20 км 4/0
[Ci fib]
+18.3 +14.5 79 +19 +23 1008.2 1007.7 +14.9
09 20.05 В 4-8
{9}
20 км 8/0
[Ci fib]
+22.5 +16.1 67 +27 +34 душно 1007.4 1006.9
12 20.05 В 3-7
{9}
20 км 6/3 600 м
[Cu Sc Ci fib]
+26.0 +15.7 53 +29 +37 душно 1006.4 1005.9
15 20.05 В 4-6
{7}
20 км 4/4 600 м
[]
+26.1 +15.9 53 +29 +32 жарко 1005.0 1004.4
18 20.05 В 3-6
{9}
10 км слаб. ливневой дождь 10/10 300 м
[Cb cap]
+19.3 +14.4 73 +21 +21 комфорт 1006.1 1005.6 +26.6 0.3
21 20.05 В 4-7
{7}
20 км {ливн. осадки} 10/5 300 м
[Cb cap Ci sp]
+17.6 +14.4 82 +17 +17 1006.5 1006.0
00 21.05 В 3-5
{10}
20 км {ливн. осадки} 8/8 600 м
[Cu Sc]
+16.9 +14.7 87 +17 +17 1006.1 1005.6
03 21.05 В 2-6
{7}
20 км 4/4 600 м
[Cu Sc]
+16.2 +14.2 88 +16 +16 1006.9 1006.4 +16.1 0.3
06 21.05 В 2-5
{5}
20 км 8/3 600 м
[Sc Ac trans]
+18.3 +14.7 80 +19 +21 1006.9 1006.4 +15.9 0.0
09 21.05 В 3-6
{7}
20 км 6/1 600 м
[Cu Sc Ci fib]
+21.5 +15.0 66 +25 +34 комфорт 1007.1 1006.6
12 21.05 В 4-7
{8}
20 км 6/3 600 м
[Sc diur, vesp Ci fib]
+23.3 +16.1 64 +28 +34 душно 1006.5 1006.0
15 21.05 СВ 3-5
{9}
20 км 4/3 600 м
[Sc diur, vesp Ci fib]
+24.0 +16.5 63 +27 +31 жарко 1005.7 1005.1
18 21.05 СВ 2-4
{10}
20 км в посл. час гроза {ливн. осадки} 8/5 300 м
[Cb cap Ci sp]
+19.7 +15.5 77 +22 +22 комфорт 1005.3 1004.8 +25.6
21 21.05 СВ 1-2
{4}
20 км 3/3 600 м
[Cu Sc]
+17.8 +15.5 86 +19 +19 1006.3 1005.8
00 22.05 СВ 2-4
{4}
20 км 3/3 600 м
[Sc diur, vesp]
+16.9 +14.5 86 +17 +17 1005.8 1005.3
03 22.05 В 2-4
{5}
20 км ясно +16.2 +13.2 82 +16 +16 1006.3 1005.8 +16.1 0.0
06 22.05 ЮВ 2-4
{5}
20 км 6/0
[Ac trans]
+16.6 +13.6 82 +17 +20 1007.4 1006.9 +16.1
09 22.05 З 1-2
{4}
20 км 3/3 600 м
[Cu Sc]
+18.3 +14.5 79 +20 +31 1007.8 1007.3
12 22.05 С 4-7
{7}
20 км 1/1 600 м
[Cu Sc]
+17.8 +13.9 78 +18 +26 1008.2 1007.6
15 22.05 С 4-7
{7}
20 км 3/3 600 м
[Cu Sc Ci sp]
+17.2 +13.6 79 +17 +20 1008.2 1007.7
18 22.05 С 3-5
{7}
20 км 6/3 600 м
[Cu Sc Ci sp]
+18.2 +13.6 75 +19 +19 1008.3 1007.8 +18.7
21 22.05 С 1-2
{5}
20 км 6/0
[Ci sp]
+14.1 +13.0 93 +14 +14 1009.8 1009.3
00 23.05 СЗ 3-5
{6}
1000 м дымка 6/0
[Ci sp]
+12.2 +11.4 95 +10 +10 1010.0 1009.5
03 23.05 СЗ 3-5
{6}
500 м туман ?/? +11.5 +11.0 97 +10 +10 1010.9 1010.4 +11.1
06 23.05 З 6-7
{7}
200 м туман ?/? +11.5 +11.0 97 +8 +8 1012.0 1011.5 +11.1
09 23.05 З 6-9
{9}
4000 м дымка {туман} 9/0
[As trans]
+12.1 +11.2 94 +9 +12 1013.0 1012.5
12 23.05 З 7-10
{10}
10 км {туман} 10/10 300 м
[St]
+11.1 +10.2 94 +8 +8 1013.8 1013.2
15 23.05 З 5-8
{10}
20 км 10/10 300 м
[St]
+11.1 +9.4 89 +8 +8 1014.4 1013.9
18 23.05 З 3-5
{8}
20 км 10/10 300 м
[St]
+10.6 +8.5 87 +9 +9 1015.2 1014.7 +12.2
21 23.05 З 3-5
{7}
20 км 9/9 600 м
[Cu Sc]
+10.5 +8.9 90 +8 +8 1014.7 1014.2
00 24.05 З 3-5
{5}
20 км 8/0
[Ci fib]
+11.3 +9.4 88 +9 +9 1014.3 1013.8
03 24.05 СЗ 3-5
{5}
20 км 8/6 600 м
[Cu Sc Ci fib]
+10.8 +9.1 89 +9 +9 1013.9 1013.4 +10.4
06 24.05 З 3-3
{5}
20 км 8/0
[Ac trans Ci sp]
+11.4 +9.2 86 +10 +12 1014.0 1013.5 +10.4
09 24.05 З 3-5
{5}
20 км 8/0
[Ci sp]
+13.2 +9.8 80 +12 +22 1014.4 1013.8
12 24.05 СЗ 3-5
{5}
20 км 8/1 600 м
[Sc diur, vesp Ci sp]
+13.8 +9.6 76 +13 +22 1013.9 1013.4
15 24.05 С 2-3
{5}
20 км 8/1 600 м
[Cu Sc Ci fib]
+16.2 +8.2 59 +16 +21 1012.6 1012.1
18 24.05 штиль 0-2
{4}
20 км 9/3 600 м
[Cu Sc Ci fib]
+16.1 +9.3 64 +16 +16 1011.4 1010.9 +18.2
21 24.05 ЮВ 2-4
{4}
20 км 9/0
[Ci fib]
+15.2 +8.9 66 +15 +15 1010.5 1010.0
00 25.05 Ю 6-9
{9}
20 км 8/0
[Ci fib]
+15.2 +9.5 69 +14 +14 1009.2 1008.7
03 25.05 ЮЗ 6-8
{9}
20 км 10/10 600 м
[Cu Sc]
+14.9 +9.6 71 +13 +13 1009.0 1008.5 +14.7
06 25.05 З 4-6
{7}
20 км 9/5 600 м
[Cu Sc Ac trans]
+12.2 +9.9 86 +10 +11 1010.2 1009.7 +12.1
09 25.05 З 5-6
{8}
20 км 9/9 600 м
[Cu Sc]
+12.1 +9.1 82 +10 +10 1011.7 1011.2
12 25.05 СЗ 4-7
{8}
20 км 8/3 600 м
[Cu Sc Ci fib]
+13.5 +8.1 70 +12 +18 1012.2 1011.7
15 25.05 СЗ 4-8
{8}
20 км 8/3 600 м
[Cu Sc Ci fib]
+13.0 +7.6 70 +11 +14 1012.7 1012.2

 

Местоположение метеостанции Балтийск (Калининградская область, Россия): широта 54.65 долгота 19.88 высота над уровнем моря 4 м.

В архиве по умолчанию представлена погода в Балтийске за последнюю неделю. Архивные данные за месяц целиком и за предыдущие месяцы, начиная с января 2011 года, Вы можете получить, выбрав интересующий диапазон дат из раскрывающегося списка и нажав кнопку "Ввод!".


*Определитесь, кто Вы:
робот инопланетянин человек

Внимание! Время в таблицах - всемирное. Для получения местного времени необходимо прибавить поправку, которая равна 2 ч.

Смотрите также архив погоды в соседних городах и на ближайших метеорологических станциях:

Погода в Мамоново (Калининградская область, Россия) (20 км)
Погода в Рыбном Порту (Калининградская область, Россия) (37 км)
Погода в Пионерском (Калининградская область, Россия) (40 км)
Погода в Калининграде (Калининградская область, Россия) (48 км)
Погода в Эльблонге (Польша) (61 км)
Погода в Хеле (Польша) (68 км)
Погода в Рыбачем (Калининградская область, Россия) (84 км)
Погода на Авиабазе Гдыня-Оксывье (Польша) (88 км)
Погода в Железнодорожном (Калининградская область, Россия) (97 км)
Погода в Ольштыне (Польша) (104 км)

Пояснения к столбцам:

Ветер - указаны скорость ветра в м/с - средняя за 10 мин, порывы в срок и между сроками (в фигурных скобках) и направление, откуда дует ветер: С - северный, СВ - северо-восточный, В - восточный, ЮВ - юго-восточный, Ю - южный, ЮЗ - юго-западный, З - западный, СЗ - северо-западный.
Видимость - горизонтальная дальность видимости в метрах или километрах. При видимости от 1 до 10 км при отсутствии осадков обычно наблюдается дымка, при ухудшении видимости до 1 км и менее - туман. В сухую погоду видимость может ухудшаться дымом, пылью или мглою.
Явления - указаны атмосферные явления, наблюдавшиеся в срок или в последний час перед сроком; фигурными скобками обозначены явления, наблюдавшиеся между сроками (за 1-3 часа до срока); квадратными скобками обозначены град или гололедные отложения с указанием их диаметра в мм.
Облачность - указаны через наклонную черту общая и нижняя облачность в баллах и высота нижней границы облаков в метрах; квадратными скобками обозначены формы облаков: Ci - перистые, Cs - перисто-слоистые, Cc - перисто-кучевые, Ac - высококучевые, As - высокослоистые, Sc - слоисто-кучевые, Ns - слоисто-дождевые, Cu - кучевые, Cb - кучево-дождевые. Подробнее классификацию облаков см. в Атласе облаков (PDF).
T - Температура воздуха - температура, измеренная на высоте 2 м над землей.
Td - Температура точки росы - температура, при понижении до которой содержащийся в воздухе водяной пар достигнет насыщения.
f - Относительная влажность воздуха - влажноcть воздуха, измеренная на высоте 2 м над землей.
Te - Эффективная температура - температура, которую ощущает одетый по сезону человек в тени. Характеристика душности погоды. При расчете учитывается влияние влажности воздуха и скорости ветра на теплоощущения человека.
Tes - Эффективная температура на солнце - температура, которую ощущает человек, с поправкой на солнечный нагрев. Характеристика знойности погоды. Зависит от высоты солнца над горизонтом, облачности и скорости ветра. Ночью, в пасмурную погоду, а также при ветре 12 м/с и более поправка равна нулю.
P - Атмосферное давление - приведенное к уровню моря атмосферное давление.
Po - Атмосферное давление - измеренное на уровне метеостанции атмосферное давление.
Tmin - Минимальная температура - минимум температуры воздуха на высоте 2 м над землей.
Tmax - Максимальная температура - максимум температуры воздуха на высоте 2 м над землей.
R - Количество осадков - Количество выпавших осадков за период времени, мм. При наведении курсора мыши на число - период времени, за который выпало указанное количество осадков.
R24 - Количество осадков - Количество выпавших осадков за 24 часа, мм.
S - Снежный покров - Высота снежного покрова, см. При наведении курсора мыши на число - состояние снежного покрова и степень покрытия местности в баллах.